sat.trackr.live / text

‹ back to catalog

SHIJIAN-28 (SJ-28)

NORAD 66549 · 2025-277A

PAYLOAD ACTIVE UNKNOWN

§ Identity

Operator
Country
PRC
Launch date
2025-11-30
Launch site
WSC
Launch vehicle
Mass (kg)
RCS (m²)

Purposes: comms

External: N2YO · Heavens-Above · Gunter

§ Orbital elements

Epoch: 2026-05-24T21:27:18.485280Z

Period
1,436.03 min
Inclination
4.5968°
Eccentricity
0.0000888
Mean motion
1.00276235 rev/d
Perigee alt
35,781.6 km
Apogee alt
35,789.1 km
Semi-major
42,163.5 km
B*
0.0000e+0
RAAN
272.5042°
Arg perigee
26.9681°
Mean anomaly
21.6908°
Rev number
192

§ Raw data

SHIJIAN-28 (SJ-28)1 66549U 25277A   26144.89396395 -.00000367  00000+0  00000+0 0  99972 66549   4.5968 272.5042 0000888  26.9681  21.6908  1.00276235  1926

JSON: /api/v1/satellites/66549 · /tle

For live sub-satellite position, see the globe view (requires WebGL).

§ Visibility from observer

Set your observer location to see the next 7 days of passes ≥ 10°. The values pass through the URL so the page stays shareable.

No JS? Fill the form by hand. The geolocation button needs JavaScript.